SL-14 R/B, 22188

Orbit data source: Space-Track

SL-14 R/B, 22188 is space debris in LEO originally from a launch on Tue, 20 Oct 1992 UTC launched from the Plesetsk Missile And Space Complex (PKMTR). Debris objects in space refer to the collection of defunct objects orbiting the Earth. Examples of debris include non-operational satellites, rocket bodies, and fragments generated from explosions, collisions, or faulty payload assembly.

Loading next visibility...
Identifier
22188, 1992-068G
Orbit
LEO
Country
Flag of CISCIS
Related business
Manufacturer
Yuzhnoe
Mission
Spacecraft
Bus & Motor
S5M, Unknown motor
Mass
1,600 kg wet, 1,600 kg dry
Launch date (UTC)
1992-10-20 (33 years ago)
Launch vehicle
Unknown
Launch site
Plesetsk Missile And Space Complex (PKMTR)
Object type
Payload
Rocket body
Debris
Shape & HBR
Cyl, 1.4 m
Radar Cross Section
7.351 m², Large (>1 m²)

Expand to show TLE details & history
Last TLE update: 8 hours ago

TLE from 8 hours ago
0 SL-14 R/B
1 22188U 92068G   25311.31577147  .00000028  00000-0  10883-3 0  9996
2 22188  82.5996 234.3906 0044280 256.2210 221.0155 12.54917098513770
Epoch: 2025-11-07T07:34Z
TLE epoch observation values (Epoch: 2025-11-07T07:34:42.655Z)
Latitude
62.25393°
Longitude
-120.2719°
Altitude
1,480.834 km
Speed
7.117 km/s
True Right ascension
02h 40m 40s
True Declination
62° 07' 30"
Sunlit
Object was in full shadow at epoch
Visualization orbit readout
Latitude
Unknown
Longitude
Unknown
Altitude
Unknown
Speed
Unknown
Apparent Right ascension
Unknown
Apparent Declination
Unknown
Sunlit
N/A
Visualization observer readout
Local Sidereal Time
11:59:22
Azimuth
Unknown
Elevation
Unknown
Doppler factor
Unknown
Orbital elements
Apogee altitude
1,475.95 km
Perigee altitude
1,406.701 km
Semi-major axis
7,819.463 km
Eccentricity
0.00443
Inclination
82.5996°
RAAN
234.3906°
Arg. of periapsis
256.221°
True anomaly
220.68389°
Mean anomaly
221.0155°
Eccentric anomaly
220.84956°
Mean motion
3.1389 °/min
Orbital period
114.69 mins
BSTAR
0.00010883
Loading maneuver chart data...
Computing Atmospheric mass density...
Loading historical data...
Loading historical data...
Loading historical data...
Loading historical data...
Loading historical data...
Loading historical data...
Loading historical data...

Documentation

Showing up to 5 results
|